Location: Newark
(35.6799°N, 139.7636°E)
Time: 16:38:52
(UTC+00:00)

Explorer 7 - Pass Details

Date: 07 December 2019
Orbit: 485 x 679 km, 50.3° (Epoch: 22 January)

Event Time Altitude Azimuth Distance (km) Brightness Sun altitude
Rises 11:38:05 0° 311° (NW) 3,024 - -50.1°
Reaches altitude 10° 11:41:23 10° 334° (NNW) 2,090 - -50.8°
Maximum altitude 11:44:18 16° 11° (N) 1,716 - -51.4°
Drops below altitude 10° 11:47:09 10° 48° (NE) 2,037 - -52.0°
Sets 11:50:18 0° 71° (ENE) 2,905 - -52.6°
